CUBESAT XI-V

Last updated on Sat Dec 13 2025 00:03:09 GMT+0000 (Coordinated Universal Time)

1 28895U 05043F 25345.89780770 .00003130 00000+0 50728-3 0 9990 2 28895 98.2721 132.9612 0015375 80.6879 279.6066 14.71894971 74194
UTC large
Height (km)
Speed (km/s)
/
Latitude / Longitude
Inclination (degrees)
Orbital Period (minutes)
Azimuth
Elevation
Range (km)
Doppler Factor

Next 0 passes for location: London (51.5072 / 0.1276)

Sorry there are no passes over London.